Showing default

QIANFAN-32, 61565

Orbit data source: Space-Track

QIANFAN-32, 61565 is a Chinese payload satellite in LEO that was launched on Tue, 15 Oct 2024 UTC via a CHANG ZHENG 6A launch vehicle from the Taiyaun Space Center, China (TSC). Payload-class satellites include a variety of spacecraft equipped with specific instruments for various scientific and technological missions. These include communications satellites like Starlink; space stations such as the ISS; scientific satellites like the Hubble; Earth observation satellites from companies like Planet Labs, Umbra, and HawkEye 360; GPS; miniature CubeSats for education and research; and military/defense satellites.

Loading next visibility...
Identifier
61565, 2024-185P
Orbit
LEO
Country
Flag of CNCN / PRC
Related business
Manufacturer
GESIH/SECM
Mission
Operational Commercial Communications
Bus & Motor
QIANFAN, Unknown motor
Mass
267 kg wet, ~267 kg dry
Launch date (UTC)
2024-10-15 (11 months ago)
Launch vehicle
CHANG ZHENG 6A
Launch site
Taiyaun Space Center, China (TSC)
Object type
Payload
Rocket body
Debris
Shape & HBR
Box + 1 Pan, 5.0 m
Radar Cross Section
13.200 m², Large (>1 m²)

Expand to show TLE details & history
Last TLE update: 11 hours ago

TLE from 11 hours ago
0 QIANFAN-32
1 61565U 24185P   25243.26799111  .00000189  00000-0  27609-3 0  9990
2 61565  88.9799  91.6051 0009830  12.0140 348.1244 13.50690620 54079
Epoch: 2025-08-31T06:25Z
TLE epoch observation values (Epoch: 2025-08-31T06:25:54.431Z)
Latitude
-0.00001°
Longitude
15.43793°
Altitude
1,065.506 km
Speed
7.323 km/s
True Right ascension
06h 06m 25s
True Declination
0° 00' 00"
Sunlit
Object was in daylight at epoch
Visualization orbit readout
Latitude
Unknown
Longitude
Unknown
Altitude
Unknown
Speed
Unknown
Apparent Right ascension
Unknown
Apparent Declination
Unknown
Sunlit
N/A
Visualization observer readout
Local Sidereal Time
08:46:44
Azimuth
Unknown
Elevation
Unknown
Doppler factor
Unknown
Orbital elements
Apogee altitude
1,074.089 km
Perigee altitude
1,059.452 km
Semi-major axis
7,444.907 km
Eccentricity
0.00098
Inclination
88.9799°
RAAN
91.6051°
Arg. of periapsis
12.014°
True anomaly
348.10119°
Mean anomaly
348.1244°
Eccentric anomaly
348.1128°
Mean motion
3.37874 °/min
Orbital period
106.55 mins
BSTAR
0.00027609
Loading maneuver chart data...
Computing Atmospheric mass density...
Loading historical data...
Loading historical data...
Loading historical data...
Loading historical data...
Loading historical data...
Loading historical data...
Loading historical data...

Documentation

Showing up to 5 results
|